Regional Weather Roundup
Issued by NWS

Home | Current Version | Previous Version | Graphics & Text | Print | Product List | Glossary On
Versions: 1 2 3 4 5 6 7 8 9 10 11 12 13 14 15 16 17 18 19 20 21 22 23 24 25 26 27 28 29 30 31 32 33 34 35 36 37 38 39 40 41 42 43 44 45 46 47 48 49 50
000
ASUS43 KLSX 262359
RWRMO

WEATHER SUMMARY FOR MISSOURI
NATIONAL WEATHER SERVICE SPRINGFIELD MO
600 PM CST THU FEB 26 2015

NOTE: "FAIR" INDICATES FEW OR NO CLOUDS BELOW 12,000 FEET WITH NO
       SIGNIFICANT WEATHER AND/OR OBSTRUCTIONS TO VISIBILITY.
       CURRENT SKY AND/OR WEATHER CONDITIONS ARE NOT AVAILABLE FOR
       CHILLICOTHE AND FARMINGTON.

MOZ001>031-035>038-043-044-053-054-270100-
...NORTHERN AND WESTERN MISSOURI...

CITY           SKY/WX    TMP DP  RH WIND       PRES   REMARKS
KANSAS CTY INT PTCLDY    14  -1  51 N15       30.46R WCI  -1
6HR MIN TEMP:  14; 6HR MAX TEMP:  20;

KANSAS C DTWN  CLEAR     18  -1  43 N12       30.49R WCI   5
6HR MIN TEMP:  18; 6HR MAX TEMP:  23;

LEE`S SUMMIT   FAIR      17   0  47 N16       30.46R WCI   2
6HR MIN TEMP:  17; 6HR MAX TEMP:  22;

ST JOSEPH      CLEAR     13  -3  49 N17       30.52R WCI  -4
6HR MIN TEMP:  13; 6HR MAX TEMP:  19;

CHILLICOTHE      N/A     13  -1  54 N7        30.50R WCI   3
6HR MIN TEMP:  13; 6HR MAX TEMP:  18;

KIRKSVILLE     CLEAR     10  -2  58 N9        30.45R WCI  -3
6HR MIN TEMP:  10; 6HR MAX TEMP:  17;


$$
MOZ066>068-077>081-088>096-101>105-270100-
...SOUTHWEST MISSOURI...

CITY           SKY/WX    TMP DP  RH WIND       PRES   REMARKS
SPRINGFIELD    CLEAR     22   2  42 N13       30.35R WCI  10
6HR MIN TEMP:  22; 6HR MAX TEMP:  27;

JOPLIN         CLEAR     23   2  40 N13       30.41R WCI  11
6HR MIN TEMP:  23; 6HR MAX TEMP:  28;


$$
MOZ032>034-039>042-045>050-055>058-069>072-270100-
...CENTRAL MISSOURI...

CITY           SKY/WX    TMP DP  RH WIND       PRES   REMARKS
COLUMBIA       PTCLDY    18   3  52 NW14      30.41R WCI   4
6HR MIN TEMP:  18; 6HR MAX TEMP:  25;

JEFFERSON CITY CLEAR     21   2  43 NW9       30.43R WCI  11
6HR MIN TEMP:  21; 6HR MAX TEMP:  25;

ROLLA          CLOUDY    19   6  57 N10       30.35R WCI   7
6HR MIN TEMP:  19; 6HR MAX TEMP:  22; 6HR PCP: TRACE;

SEDALIA        CLEAR     17   3  54 N14       30.46R WCI   3
6HR MIN TEMP:  17; 6HR MAX TEMP:  23;

OSAGE BEACH    CLEAR     19   1  45 NW10      30.40R WCI   8

$$
MOZ051-052-059>065-270100-
...EAST CENTRAL MISSOURI...

CITY           SKY/WX    TMP DP  RH WIND       PRES   REMARKS
ST LOUIS INTL  MOCLDY    20   8  60 NW14      30.39R WCI   7
6HR MIN TEMP:  20; 6HR MAX TEMP:  24; 6HR PCP: TRACE;

SPIRIT OF STL  MOCLDY    20   6  55 NW13      30.40R WCI   7
6HR MIN TEMP:  20; 6HR MAX TEMP:  24; 6HR PCP: TRACE;

ST CHARLES     CLOUDY    18   7  62 NW17      30.41R WCI   3
6HR MIN TEMP:  18; 6HR MAX TEMP:  23; 6HR PCP: TRACE;


$$
MOZ072>076-082>087-097>100-106>115-270100-
...SOUTH CENTRAL AND SOUTHEAST MISSOURI...

CITY           SKY/WX    TMP DP  RH WIND       PRES   REMARKS
CAPE GIRARDEAU NOT AVBL
FARMINGTON     CLOUDY    19  12  73 NW13      30.36R WCI   7
6HR MIN TEMP:  19; 6HR MAX TEMP:  23;

POPLAR BLUFF   CLOUDY    27  13  55 N16       30.34R WCI  15
6HR MIN TEMP:  27; 6HR MAX TEMP:  30;

WEST PLAINS    MOCLDY    21   9  59 N8        30.34R WCI  11
6HR MIN TEMP:  21; 6HR MAX TEMP:  26; 6HR PCP: TRACE;


$$



USA.gov is the U.S. government's official web portal to all federal, state and local government web resources and services.